User: anonymous   Login
Location: Bittelbronn
(48.4454°N, 8.5870°E)
Time: 16:38:10
(UTC+00:00)
Language:

SL-16 R/B - Orbit

View from above orbital plane
View from above orbital plane
View from above satellite
View from above satellite

Ground track
Ground track

The orbit data is extracted from the following two-line orbital elements,

1 27006U 01056F   24207.07122034 -.00000000  00000-0  50841-4 0  9994
2 27006  99.6909 354.5319 0015304  71.6418  39.0270 13.71034829132060
Epoch (UTC): 25 July 2024 01:42:33
Eccentricity: 0.0015304
inclination: 99.6909°
perigee height: 984 km
apogee height: 1007 km
right ascension of ascending node: 354.5319°
argument of perigee: 71.6418°
revolutions per day: 13.71034829
mean anomaly at epoch: 39.0270°
orbit number at epoch: 13206

The dashed part of the orbit path shows where the satellite is in the earth's shadow,  

DLR